Showing default

LYNK TOWER 6, 59123

Orbit data source: Space-Track

LYNK TOWER 6, 59123 is a payload satellite owned by Lynk (US) in SSO that was launched on Mon, 04 Mar 2024 UTC via an FALCON 9 launch vehicle from the Air Force Western Test Range (AFWTR). Payloads include a variety of satellites, spacecraft, and rockets equipped with specific instruments for various scientific and technological missions. These include communications satellites like Starlink; space stations such as the ISS; scientific satellites like the Hubble; Earth observation satellites from companies like Planet Labs, Umbra, and HawkEye 360; GPS; miniature CubeSats for education and research; and military/defense satellites.

Loading next visibility...
LYNK TOWER 6 details
Identifier
59123, 2024-043AB
Orbit
SSO
Last TLE update15 hours ago
Origin
Flag of USLynk (US)
ManufacturerLynk
MissionOperational Commercial Communications
Bus & MotorLYNK SHANNON, Unknown motor
Mass~85 kg wet, ~85 kg dry
Launch date (UTC)
2024-03-04 (9 months ago)
Launch vehicle
FALCON 9
Launch site
Air Force Western Test Range (AFWTR)
Object type
Payload
Rocket body
Debris
Shape & HBRBox, 1 m
Radar Cross Section0.650 m², Medium (>0.1 m² and < 1m²)

Expand to show TLE details & history

TLE from 15 hours ago
0 LYNK TOWER 6
1 59123U 24043AB  24325.77800903  .00008551  00000-0  39190-3 0  9997
2 59123  97.4926  87.9832 0014113 105.8495 254.4297 15.20624095 39579
Epoch: 2024-11-20T18:40Z
Definitive object data (Epoch: 2024-11-20T18:40:19.98Z)
Latitude-0.00002°
Longitude107.63073°
Altitude509.666 km
Speed7.608 km/s
True Right ascension05h 51m 55s
True Declination0° 00' 00"
Sunlit
Object was in full shadow at TLE epoch
Visualization TLE readout
Latitude56.15197°
Longitude-60.51195°
Altitude504.173 km
Speed7.623 km/s
Apparent Right ascension18h 33m 17s
Apparent Declination10° 30' 52"
Sunlit
Object is in daylight
Visualization observer readout
Local Sidereal Time06:28:31
Azimuth358.482° N
Elevation-39.557°
Doppler factor1
Orbital elements
Apogee altitude510.634 km
Perigee altitude491.217 km
Semi-major axis6,879.063 km
Eccentricity0.0014113
Inclination97.4926°
RAAN87.9832°
Arg. of periapsis105.8495°
True anomaly254.27399°
Mean anomaly254.4297°
Eccentric anomaly254.35184°
Mean motion3.80408 °/min
BSTAR0.0003919
Orbital period94.64 mins
Loading maneuver chart data...
Loading historical data...
Loading historical data...
Loading historical data...
Loading historical data...
Loading historical data...
Loading historical data...
Loading historical data...

LYNK TOWER 6 Visibility forecast

Observer location: undefined°, undefined

Span
Click to sort rows by Start time (UTC) header in descending order
Start Az.
Max El. time (UTC)
Max El. Az.
Max El.
End time (UTC)
End Az.
4 mins2024-11-21 20:31:29.972Z52.713° ENE2024-11-21 20:33:29.972Z96.574° ESE21.712°2024-11-21 20:35:29.972Z139.737° SSE
6 mins2024-11-22 08:41:29.972Z184.828° SSW2024-11-22 08:44:29.972Z236.406° WSW35.757°2024-11-22 08:47:29.972Z331.253° NNW
|